1507280400.04,1481,12.88,72762.5,-2.13,-4.29,-4.53,0,*61
1507280401.25,1482,12.81,72762.8,-2.13,-4.21,-4.45,0,*6D
1507280402.47,1483,12.88,72764.3,-2.13,-4.09,-4.41,0,*62
1507280403.68,1484,12.81,72762.8,-2.11,-4.05,-4.41,0,*6B
1507280404.9,1485,12.81,72768.5,-2.11,-4.17,-4.49,0,*61
1507280406.12,1486,12.81,72768.3,-2.11,-4.13,-4.49,0,*66
1507280407.34,1487,12.81,72766.3,-2.11,-3.91,-4.41,0,*62
1507280408.54,1488,12.81,72766.0,-2.09,-3.91,-4.37,0,*65
1507280409.73,1489,12.81,72766.3,-2.09,-4.17,-4.53,0,*6F
1507280410.95,1490,12.88,72768.3,-2.09,-4.41,-4.69,0,*6D
1507280412.14,1491,12.88,72770.3,-2.09,-4.17,-4.49,0,*6D
1507280413.36,1492,12.81,72768.0,-2.09,-4.01,-4.41,0,*61
1507280414.58,1493,12.81,72772.3,-2.07,-4.09,-4.37,0,*67
1507280415.81,1494,12.81,72770.8,-2.07,-4.21,-4.61,0,*69
1507280417.06,1495,12.81,72772.3,-2.07,-4.25,-4.73,0,*6F
1507280418.27,1496,12.81,72774.5,-2.07,-4.49,-4.99,0,*62
1507280419.49,1497,12.81,72772.8,-2.05,-4.45,-5.03,0,*6F
1507280420.71,1498,12.81,72772.8,-2.07,-4.99,-5.55,0,*60
1507280421.95,1499,12.81,72768.8,-2.05,-5.15,-5.69,0,*69
1507280423.19,1500,12.88,72768.8,-2.05,-4.77,-5.15,0,*66
1507280424.4,1501,12.88,72766.8,-2.07,-4.99,-5.43,0,*66
1507280425.59,1502,12.81,72760.3,-2.05,-4.53,-4.99,0,*67
1507280426.83,1503,12.81,72762.3,-2.07,-4.45,-4.85,0,*6E
1507280428.04,1504,12.81,72764.3,-2.01,-4.49,-4.85,0,*63
1507280429.26,1505,12.81,72766.5,-2.05,-4.89,-5.51,0,*62
1507280430.45,1506,12.81,72762.0,-2.05,-5.51,-6.05,0,*67
1507280431.69,1507,12.81,72764.5,-2.05,-5.15,-5.77,0,*60
1507280432.92,1508,12.81,72764.5,-2.07,-6.01,-6.81,0,*61
1507280434.13,1509,12.81,72760.3,-2.09,-6.35,-7.05,0,*64
1507280435.35,1510,12.81,72762.8,-2.07,-6.59,-7.15,0,*69
1507280436.59,1511,12.81,72760.5,-2.11,-6.85,-7.43,0,*6D
1507280437.81,1512,12.81,72764.3,-2.11,-6.77,-7.19,0,*6C
1507280439.05,1513,12.81,72762.5,-2.11,-7.69,-8.25,0,*63
1507280440.29,1514,12.81,72758.0,-2.13,-7.99,-8.41,0,*6B
1507280441.51,1515,12.81,72758.8,-2.15,-8.07,-8.41,0,*64
1507280442.75,1516,12.81,72756.3,-2.19,-7.77,-8.07,0,*61
1507280443.99,1517,12.81,72756.5,-2.21,-7.69,-8.21,0,*60
1507280445.23,1518,12.81,72758.0,-2.23,-7.99,-8.51,0,*65
1507280446.45,1519,12.81,72758.0,-2.27,-7.73,-8.17,0,*66
1507280447.65,1520,12.81,72752.5,-2.27,-7.49,-7.83,0,*67
1507280448.89,1521,12.81,72756.8,-2.29,-7.05,-7.49,0,*66
1507280450.16,1522,12.81,72754.5,-2.29,-7.27,-7.77,0,*68
1507280451.4,1523,12.81,72758.5,-2.31,-7.27,-7.65,0,*63
1507280452.67,1524,12.81,72756.8,-2.33,-7.65,-7.95,0,*6F
1507280453.9,1525,12.88,72762.5,-2.33,-6.77,-7.15,0,*64
1507280455.15,1526,12.81,72758.3,-2.33,-6.97,-7.23,0,*6C
1507280456.37,1527,12.81,72760.0,-2.33,-7.15,-7.53,0,*61
1507280457.58,1528,12.81,72758.3,-2.35,-7.23,-7.39,0,*61
1507280458.8,1529,12.81,72756.0,-2.35,-6.73,-6.97,0,*61
1507280460.05,1530,12.81,72756.5,-2.37,-6.77,-6.93,0,*6B
1507280461.32,1531,12.81,72762.5,-2.37,-7.05,-7.27,0,*60
1507280462.51,1532,12.88,72766.0,-2.35,-7.23,-7.53,0,*66
1507280463.76,1533,12.81,72768.0,-2.37,-8.25,-8.51,0,*61
1507280464.96,1534,12.81,72770.0,-2.39,-8.25,-8.45,0,*6D
1507280466.22,1535,12.81,72764.5,-2.41,-7.61,-8.03,0,*6E
1507280467.44,1536,12.81,72766.8,-2.43,-7.53,-7.91,0,*6A
1507280468.68,1537,12.81,72762.5,-2.45,-7.35,-7.65,0,*66
1507280469.93,1538,12.81,72758.3,-2.43,-7.27,-7.57,0,*6D
1507280471.12,1539,12.81,72760.3,-2.43,-6.47,-6.85,0,*65
1507280472.36,1540,12.81,72764.8,-2.45,-5.81,-6.19,0,*61
1507280473.61,1541,12.88,72766.0,-2.43,-5.85,-6.23,0,*6B
1507280474.83,1542,12.81,72766.8,-2.43,-5.77,-5.97,0,*69
1507280476.05,1543,12.81,72768.5,-2.43,-6.35,-6.63,0,*65
1507280477.25,1544,12.81,72766.0,-2.43,-6.73,-6.89,0,*64
1507280478.44,1545,12.81,72764.0,-2.43,-6.47,-6.89,0,*62
1507280479.66,1546,12.81,72758.5,-2.43,-7.01,-7.15,0,*66
1507280480.86,1547,12.81,72756.0,-2.43,-6.35,-6.73,0,*60
1507280482.07,1548,12.81,72756.0,-2.45,-6.85,-7.27,0,*62
1507280483.27,1549,12.81,72756.3,-2.45,-6.35,-6.59,0,*60
1507280484.5,1550,12.81,72762.0,-2.43,-5.55,-5.81,0,*6D
1507280485.75,1551,12.81,72762.0,-2.43,-5.69,-5.85,0,*67
1507280486.99,1552,12.81,72758.5,-2.43,-5.65,-5.93,0,*6F
1507280488.21,1553,12.81,72764.0,-2.43,-5.65,-6.05,0,*62
1507280489.45,1554,12.81,72768.3,-2.41,-5.77,-6.39,0,*6B
1507280490.67,1555,12.88,72770.3,-2.41,-6.55,-6.85,0,*6E
1507280491.89,1556,12.81,72768.5,-2.41,-7.11,-7.49,0,*6D
1507280493.11,1557,12.81,72764.5,-2.41,-6.69,-7.11,0,*6F
1507280494.31,1558,12.81,72760.0,-2.43,-6.09,-6.35,0,*63
1507280495.56,1559,12.88,72760.3,-2.43,-5.93,-6.19,0,*6C
1507280496.76,1560,12.81,72762.8,-2.39,-6.13,-6.39,0,*62
1507280498.0,1561,12.81,72762.8,-2.41,-6.55,-6.97,0,*6A
1507280499.22,1562,12.81,72764.0,-2.41,-6.13,-6.43,0,*62
1507280500.44,1563,12.81,72768.3,-2.41,-6.13,-6.43,0,*63
1507280501.68,1564,12.81,72764.5,-2.41,-6.27,-6.59,0,*68
1507280502.94,1565,12.81,72764.5,-2.39,-6.93,-7.31,0,*66
1507280504.16,1566,12.81,72764.0,-2.41,-6.81,-7.11,0,*6B
1507280505.38,1567,12.81,72764.5,-2.45,-6.59,-7.01,0,*6A
1507280506.6,1568,12.81,72762.3,-2.45,-7.11,-7.43,0,*6E
1507280507.84,1569,12.81,72756.5,-2.45,-7.35,-7.69,0,*61
1507280509.03,1570,12.81,72754.5,-2.45,-7.53,-7.83,0,*6D
1507280510.23,1571,12.81,72756.3,-2.45,-7.53,-7.83,0,*6C
1507280511.47,1572,12.81,72760.3,-2.51,-7.01,-7.15,0,*62
1507280512.71,1573,12.81,72760.0,-2.51,-7.19,-7.27,0,*6B
1507280513.95,1574,12.81,72760.5,-2.51,-7.05,-7.15,0,*60
1507280515.16,1575,12.81,72768.3,-2.51,-6.69,-6.77,0,*6F
1507280516.35,1576,12.81,72766.0,-2.53,-6.51,-6.69,0,*6A
1507280517.54,1577,12.81,72764.3,-2.53,-6.31,-6.43,0,*65
1507280518.76,1578,12.81,72764.8,-2.51,-6.35,-6.51,0,*6F
1507280519.98,1579,12.81,72760.8,-2.51,-6.39,-6.77,0,*66
1507280521.18,1580,12.81,72760.5,-2.53,-6.73,-7.05,0,*68
1507280522.4,1581,12.81,72760.5,-2.51,-6.81,-7.15,0,*67
1507280523.63,1582,12.88,72762.5,-2.53,-6.63,-7.05,0,*6B
1507280524.87,1583,12.81,72760.0,-2.55,-7.05,-7.49,0,*65
1507280526.11,1584,12.81,72756.3,-2.55,-6.73,-6.97,0,*60
1507280527.32,1585,12.81,72760.8,-2.55,-6.31,-6.55,0,*69
1507280528.52,1586,12.81,72760.3,-2.53,-6.43,-6.73,0,*6D
1507280529.76,1587,12.81,72766.5,-2.55,-7.19,-7.65,0,*62
1507280531.0,1588,12.88,72770.5,-2.57,-7.35,-7.77,0,*62
1507280532.24,1589,12.81,72764.0,-2.59,-8.51,-8.93,0,*65
1507280533.45,1590,12.81,72764.5,-2.59,-8.21,-8.67,0,*61
1507280534.67,1591,12.81,72766.3,-2.61,-7.69,-7.83,0,*6D
1507280535.91,1592,12.88,72764.0,-2.63,-7.49,-7.61,0,*62
1507280537.16,1593,12.81,72764.5,-2.63,-7.77,-7.87,0,*66
1507280538.43,1594,12.81,72764.8,-2.63,-7.57,-7.77,0,*6C
1507280539.65,1595,12.81,72758.5,-2.65,-7.23,-7.31,0,*6A
1507280540.86,1596,12.81,72754.5,-2.65,-6.85,-6.97,0,*69
1507280542.07,1597,12.81,72756.5,-2.65,-7.31,-7.49,0,*64
1507280543.3,1598,12.81,72758.3,-2.65,-6.93,-7.11,0,*6F
1507280544.51,1599,12.81,72756.5,-2.65,-6.77,-7.05,0,*61
1507280545.76,1600,12.81,72754.3,-2.67,-6.97,-7.23,0,*6A
1507280546.97,1601,12.81,72756.5,-2.65,-6.85,-7.27,0,*6E
1507280548.17,1602,12.81,72758.5,-2.65,-6.31,-6.55,0,*66
1507280549.38,1603,12.81,72754.0,-2.65,-6.27,-6.51,0,*64
1507280550.62,1604,12.81,72758.3,-2.63,-5.97,-6.27,0,*6C
1507280551.89,1605,12.81,72752.5,-2.63,-6.63,-6.97,0,*6E
1507280553.1,1606,12.81,72754.8,-2.63,-6.05,-6.39,0,*69
1507280554.36,1607,12.81,72754.5,-2.63,-6.27,-6.63,0,*67
1507280555.56,1608,12.81,72756.8,-2.61,-6.51,-6.73,0,*6A
1507280556.78,1609,12.81,72754.8,-2.61,-5.55,-5.69,0,*64
1507280558.03,1610,12.81,72756.0,-2.61,-5.23,-5.31,0,*60
1507280559.24,1611,12.88,72756.5,-2.57,-4.99,-5.15,0,*62
1507280560.44,1612,12.81,72758.5,-2.57,-4.85,-4.99,0,*69
1507280561.69,1613,12.81,72756.0,-2.53,-5.03,-5.27,0,*67
1507280562.93,1614,12.81,72752.3,-2.53,-5.61,-5.65,0,*62
1507280564.18,1615,12.81,72752.3,-2.53,-5.03,-5.23,0,*65
1507280565.39,1616,12.81,72748.0,-2.49,-4.45,-4.77,0,*6E
1507280566.58,1617,12.81,72750.3,-2.45,-4.17,-4.41,0,*61
1507280567.82,1618,12.81,72746.3,-2.43,-4.73,-4.89,0,*6E
1507280569.04,1619,12.81,72748.5,-2.39,-4.37,-4.69,0,*6C
1507280570.24,1620,12.81,72748.8,-2.39,-4.33,-4.45,0,*6C
1507280571.49,1621,12.81,72746.0,-2.37,-4.01,-4.17,0,*65
1507280572.71,1622,12.81,72746.3,-2.37,-4.21,-4.33,0,*62
1507280573.94,1623,12.81,72742.5,-2.33,-4.29,-4.53,0,*69
1507280575.16,1624,12.81,72746.0,-2.31,-4.65,-4.77,0,*62
1507280576.36,1625,12.81,72756.8,-2.31,-5.47,-5.51,0,*67
1507280577.58,1626,12.81,72760.8,-2.29,-4.37,-4.57,0,*6C
1507280578.77,1627,12.81,72760.0,-2.27,-3.87,-3.95,0,*66
1507280580.0,1628,12.81,72764.8,-2.27,-3.63,-3.79,0,*61
1507280581.24,1629,12.81,72762.3,-2.21,-4.01,-4.41,0,*69
1507280582.47,1630,12.81,72756.3,-2.23,-4.57,-4.81,0,*6C
1507280583.71,1631,12.81,72766.0,-2.21,-4.53,-4.69,0,*6D
1507280584.95,1632,12.81,72756.3,-2.17,-5.03,-5.51,0,*65
1507280586.19,1633,12.81,72754.8,-2.19,-6.63,-6.97,0,*66
1507280587.4,1634,12.81,72752.3,-2.19,-6.19,-6.47,0,*61
1507280588.61,1635,12.81,72744.5,-2.19,-5.81,-6.09,0,*68
1507280589.86,1636,12.81,72732.3,-2.21,-5.19,-5.43,0,*6C
1507280591.12,1637,12.81,72736.0,-2.21,-4.69,-5.03,0,*6F
1507280592.37,1638,12.81,72754.0,-2.21,-4.61,-4.89,0,*6B
1507280593.64,1639,12.81,72752.8,-2.17,-5.03,-5.23,0,*6B
1507280594.88,1640,12.81,72754.5,-2.19,-4.81,-5.03,0,*62
1507280596.15,1641,12.81,72758.5,-2.17,-5.03,-5.23,0,*64
1507280597.39,1642,12.81,72754.8,-2.17,-4.61,-4.85,0,*6F
1507280598.62,1643,12.81,72752.5,-2.15,-4.65,-4.85,0,*68
1507280599.86,1644,12.81,72754.3,-2.15,-4.85,-5.23,0,*6C
1507280601.1,1645,12.81,72754.8,-2.13,-5.43,-5.85,0,*6C
1507280602.32,1646,12.81,72754.3,-2.15,-6.01,-6.27,0,*67
1507280603.53,1647,12.81,72756.0,-2.15,-5.81,-6.13,0,*6A
1507280604.73,1648,12.81,72752.3,-2.15,-6.31,-6.59,0,*63
1507280605.95,1649,12.81,72748.0,-2.15,-6.59,-6.97,0,*6E
1507280607.16,1650,12.81,72752.3,-2.17,-6.85,-7.15,0,*6E
1507280608.34,1651,12.81,72758.0,-2.19,-8.33,-8.75,0,*6B
1507280609.57,1652,12.81,72754.5,-2.23,-8.51,-8.89,0,*66
1507280610.84,1653,12.81,72752.8,-2.29,-7.65,-7.77,0,*6B
1507280612.08,1654,12.81,72748.3,-2.29,-7.49,-7.77,0,*62
1507280613.29,1655,12.81,72752.8,-2.31,-7.91,-8.33,0,*60
1507280614.53,1656,12.81,72752.8,-2.33,-8.03,-8.45,0,*64
1507280615.78,1657,12.81,72740.8,-2.37,-7.95,-8.41,0,*65
1507280617.02,1658,12.81,72746.8,-2.39,-7.77,-8.03,0,*6E
1507280618.25,1659,12.81,72750.0,-2.39,-6.97,-7.23,0,*6D
1507280619.49,1660,12.81,72750.8,-2.41,-6.69,-6.93,0,*63
1507280620.69,1661,12.81,72754.5,-2.39,-6.81,-7.11,0,*60
1507280621.94,1662,12.81,72756.0,-2.41,-6.93,-7.19,0,*67
1507280623.19,1663,12.81,72752.5,-2.41,-6.97,-7.19,0,*62
1507280624.43,1664,12.81,72748.0,-2.41,-6.27,-6.51,0,*63
1507280625.63,1665,12.81,72754.8,-2.43,-5.97,-6.31,0,*6E
1507280626.89,1666,12.81,72758.5,-2.41,-7.05,-7.39,0,*6F
1507280628.11,1667,12.81,72754.0,-2.41,-7.53,-7.87,0,*68
1507280629.35,1668,12.81,72750.8,-2.45,-7.69,-8.03,0,*69
1507280630.54,1669,12.81,72740.8,-2.45,-6.59,-6.77,0,*67
1507280631.76,1670,12.81,72722.5,-2.45,-5.51,-5.65,0,*64
1507280633.01,1671,12.81,72724.0,-2.45,-5.19,-5.27,0,*6F
1507280634.23,1672,12.81,72750.3,-2.43,-5.19,-5.39,0,*65
1507280635.42,1673,12.81,72742.0,-2.43,-6.31,-6.85,0,*69
1507280636.66,1674,12.81,72736.5,-2.43,-5.81,-6.23,0,*6A
1507280637.91,1675,12.81,72742.5,-2.41,-5.51,-5.93,0,*6C
1507280639.12,1676,12.81,72742.3,-2.39,-5.73,-6.01,0,*68
1507280640.34,1677,12.81,72746.8,-2.35,-5.97,-6.23,0,*6F
1507280641.58,1678,12.88,72748.0,-2.35,-7.39,-7.69,0,*69
1507280642.82,1679,12.81,72744.8,-2.35,-7.69,-7.65,0,*61
1507280644.04,1680,12.81,72746.0,-2.35,-7.43,-7.23,0,*6D
1507280645.26,1681,12.81,72738.0,-2.37,-7.87,-7.49,0,*6A
1507280646.48,1682,12.81,72744.3,-2.35,-8.63,-8.03,0,*6F
1507280647.76,1683,12.81,72744.5,-2.37,-8.11,-7.31,0,*67
1507280648.98,1684,12.81,72748.3,-2.35,-5.97,-5.27,0,*64
1507280650.21,1685,12.81,72750.5,-2.35,-5.03,-4.53,0,*6A
1507280651.46,1686,12.81,72750.5,-2.35,-5.19,-5.07,0,*62
1507280652.71,1687,12.81,72750.3,-2.31,-5.03,-5.11,0,*6B
1507280653.95,1688,12.81,72760.3,-2.27,-5.11,-5.11,0,*60
1507280655.2,1689,12.81,72754.8,-2.27,-4.81,-4.85,0,*65
1507280656.41,1690,12.81,72754.0,-2.21,-4.13,-4.17,0,*6B
1507280657.6,1691,12.81,72762.0,-2.19,-3.83,-3.83,0,*65
1507280658.82,1692,12.81,72756.3,-2.17,-3.95,-3.95,0,*68
1507280660.04,1693,12.81,72742.0,-2.13,-4.05,-4.29,0,*63
1507280661.24,1694,12.81,72738.5,-2.15,-4.57,-4.57,0,*6C
1507280662.5,1695,12.81,72746.8,-2.13,-4.73,-4.81,0,*66
1507280663.76,1696,12.81,72746.8,-2.13,-4.81,-4.81,0,*68
1507280664.95,1697,12.81,72748.0,-2.09,-4.17,-4.29,0,*6F
1507280666.22,1698,12.81,72754.0,-2.07,-3.59,-3.67,0,*6E
1507280667.44,1699,12.81,72750.3,-2.05,-3.59,-3.75,0,*6E
1507280668.66,1700,12.81,72748.5,-1.99,-3.91,-3.95,0,*63
1507280669.89,1701,12.81,72750.3,-1.99,-3.79,-3.91,0,*60
1507280671.07,1702,12.81,72742.5,-1.97,-4.13,-4.29,0,*62
1507280672.33,1703,12.81,72740.5,-1.95,-4.77,-4.93,0,*62
1507280673.6,1704,12.81,72732.5,-1.95,-5.07,-5.31,0,*6A
1507280674.84,1705,12.88,72732.5,-1.95,-5.47,-5.73,0,*69
1507280676.05,1706,12.81,72732.8,-1.97,-6.23,-6.39,0,*64
1507280677.29,1707,12.81,72738.8,-1.97,-5.93,-6.27,0,*62
1507280678.51,1708,12.81,72742.5,-1.99,-6.09,-6.39,0,*6C
1507280679.75,1709,12.81,72752.8,-1.99,-5.97,-6.27,0,*66
1507280680.96,1710,12.81,72752.0,-2.01,-6.39,-6.63,0,*6B
1507280682.21,1711,12.81,72752.0,-1.99,-5.51,-5.85,0,*6E
1507280683.45,1712,12.81,72750.3,-2.01,-5.77,-5.89,0,*67
1507280684.69,1713,12.81,72744.0,-2.01,-5.65,-5.85,0,*69
1507280685.88,1714,12.81,72744.0,-2.01,-6.09,-6.39,0,*63
1507280687.07,1715,12.81,72746.8,-2.05,-6.59,-6.85,0,*64
1507280688.35,1716,12.81,72746.5,-2.07,-5.77,-5.93,0,*6E
1507280689.6,1717,12.81,72744.0,-2.07,-5.23,-5.51,0,*60
1507280690.83,1718,12.81,72738.3,-2.07,-4.85,-4.99,0,*67
1507280692.02,1719,12.81,72732.0,-2.05,-4.45,-4.65,0,*6B
1507280693.23,1720,12.81,72712.8,-2.05,-4.85,-4.99,0,*6E
1507280694.45,1721,12.81,72720.5,-2.05,-4.61,-4.89,0,*64
1507280695.66,1722,12.81,72738.5,-2.01,-4.61,-4.93,0,*68
1507280696.88,1723,12.81,72744.5,-1.99,-4.41,-4.57,0,*61
1507280698.11,1724,12.81,72764.5,-1.99,-4.61,-4.93,0,*6C
1507280699.38,1725,12.81,72766.3,-1.99,-4.85,-5.11,0,*6C
1507280700.61,1726,12.81,72756.3,-1.99,-5.89,-6.01,0,*60
1507280701.86,1727,12.81,72752.8,-1.99,-5.19,-5.35,0,*6C
1507280703.12,1728,12.81,72744.8,-1.99,-4.85,-5.11,0,*61
1507280704.39,1729,12.81,72750.0,-1.99,-5.07,-5.23,0,*6A
1507280705.61,1730,12.81,72746.5,-1.99,-4.29,-4.49,0,*62
1507280706.85,1731,12.81,72744.3,-1.97,-4.89,-5.15,0,*6F
1507280708.07,1732,12.81,72742.8,-1.97,-4.77,-4.93,0,*62
1507280709.26,1733,12.81,72742.0,-1.97,-4.29,-4.45,0,*63
1507280710.47,1734,12.81,72746.8,-1.95,-4.37,-4.57,0,*6A
1507280711.66,1735,12.81,72750.5,-1.93,-4.33,-4.49,0,*66
1507280712.88,1736,12.81,72750.3,-1.93,-5.39,-5.69,0,*6D
1507280714.06,1737,12.81,72752.0,-1.93,-4.65,-4.99,0,*6A
1507280715.3,1738,12.81,72750.3,-1.93,-4.85,-5.15,0,*6E
1507280716.53,1739,12.88,72748.5,-1.93,-4.85,-5.03,0,*68
1507280717.72,1740,12.81,72748.5,-1.93,-4.65,-4.99,0,*6A
1507280718.96,1741,12.81,72750.0,-1.91,-4.41,-4.73,0,*6B
1507280720.15,1742,12.81,72748.8,-1.93,-4.33,-4.53,0,*6D
1507280721.38,1743,12.88,72756.0,-1.91,-4.25,-4.53,0,*69
1507280722.57,1744,12.81,72756.8,-1.89,-4.09,-4.37,0,*6B
1507280723.77,1745,12.81,72752.8,-1.87,-5.43,-5.97,0,*60
1507280725.02,1746,12.88,72752.5,-1.91,-5.89,-6.31,0,*6D
1507280726.26,1747,12.88,72752.3,-1.91,-4.99,-5.15,0,*69
1507280727.48,1748,12.88,72758.3,-1.91,-4.25,-4.53,0,*62
1507280728.69,1749,12.81,72756.3,-1.89,-4.45,-4.69,0,*65
1507280729.91,1750,12.81,72752.8,-1.89,-6.19,-6.51,0,*6F
1507280731.12,1751,12.88,72756.0,-1.89,-6.19,-6.69,0,*65
1507280732.37,1752,12.81,72752.0,-1.91,-5.27,-5.55,0,*6D
1507280733.58,1753,12.81,72754.0,-1.93,-5.39,-5.69,0,*6E
1507280734.85,1754,12.81,72758.0,-1.91,-5.27,-5.69,0,*64
1507280736.06,1755,12.88,72758.0,-1.91,-4.65,-4.99,0,*6C
1507280737.28,1756,12.81,72756.5,-1.93,-4.01,-4.25,0,*68
1507280738.53,1757,12.88,72762.8,-1.91,-3.75,-4.01,0,*69
1507280739.72,1758,12.88,72762.5,-1.89,-4.05,-4.33,0,*6E
1507280740.91,1759,12.81,72760.8,-1.89,-4.29,-4.37,0,*65
1507280742.13,1760,12.88,72758.0,-1.87,-3.79,-4.05,0,*62
1507280743.36,1761,12.81,72752.3,-1.87,-3.91,-4.25,0,*67
1507280744.55,1762,12.88,72760.0,-1.81,-3.83,-4.09,0,*6F
1507280745.78,1763,12.81,72756.0,-1.83,-3.87,-4.21,0,*62
1507280746.99,1764,12.81,72752.5,-1.81,-4.53,-4.85,0,*67
1507280748.18,1765,12.81,72754.8,-1.81,-4.37,-4.65,0,*6A
1507280749.37,1766,12.88,72756.8,-1.81,-4.21,-4.41,0,*68
1507280750.61,1767,12.81,72754.5,-1.81,-4.85,-5.27,0,*66
1507280751.83,1768,12.81,72752.8,-1.81,-5.03,-5.51,0,*67
1507280753.05,1769,12.81,72754.0,-1.81,-5.27,-5.55,0,*64
1507280754.29,1770,12.81,72752.8,-1.81,-4.89,-5.19,0,*61
1507280755.51,1771,12.81,72754.0,-1.83,-4.13,-4.29,0,*63
1507280756.7,1772,12.81,72754.5,-1.81,-3.87,-4.25,0,*64
1507280757.9,1773,12.88,72754.5,-1.81,-4.25,-4.53,0,*6B
1507280759.12,1774,12.81,72752.0,-1.77,-4.13,-4.33,0,*66
1507280760.34,1775,12.88,72758.0,-1.77,-4.05,-4.29,0,*6B
1507280761.57,1776,12.88,72758.0,-1.77,-3.75,-4.05,0,*66
1507280762.8,1777,12.81,72746.8,-1.77,-4.05,-4.29,0,*69
1507280764.04,1778,12.88,72750.8,-1.77,-4.41,-4.77,0,*6D
1507280765.27,1779,12.81,72758.5,-1.75,-4.65,-5.07,0,*6E
1507280766.48,1780,12.81,72762.8,-1.75,-4.45,-4.81,0,*65
1507280767.71,1781,12.88,72762.8,-1.75,-5.55,-5.89,0,*6D
1507280768.98,1782,12.88,72762.5,-1.77,-5.61,-5.89,0,*6B
1507280770.25,1783,12.81,72752.3,-1.77,-4.81,-5.19,0,*6C
1507280771.48,1784,12.81,72750.8,-1.81,-5.03,-5.55,0,*61
1507280772.71,1785,12.81,72752.8,-1.77,-4.93,-5.35,0,*67
1507280773.95,1786,12.88,72752.8,-1.81,-4.73,-5.15,0,*61
1507280775.17,1787,12.88,72752.8,-1.81,-4.65,-4.89,0,*63
1507280776.4,1788,12.81,72750.3,-1.81,-4.77,-5.03,0,*6C
1507280777.67,1789,12.88,72754.0,-1.77,-4.69,-5.07,0,*6F
1507280778.89,1790,12.81,72754.0,-1.81,-4.61,-4.89,0,*61
1507280780.12,1791,12.81,72754.3,-1.81,-4.85,-5.19,0,*62
1507280781.36,1792,12.88,72756.0,-1.81,-4.77,-5.19,0,*6C
1507280782.57,1793,12.88,72754.8,-1.81,-4.53,-4.85,0,*6F
1507280783.78,1794,12.88,72756.0,-1.81,-4.41,-4.77,0,*66
1507280785.02,1795,12.88,72756.5,-1.81,-5.15,-5.65,0,*65
1507280786.26,1796,12.88,72756.0,-1.81,-5.27,-5.69,0,*6B
1507280787.47,1797,12.81,72750.5,-1.81,-5.39,-5.77,0,*6A
1507280788.71,1798,12.88,72752.8,-1.81,-5.27,-5.65,0,*69
1507280789.9,1799,12.81,72748.3,-1.81,-4.99,-5.39,0,*65
1507280791.15,1800,12.88,72750.8,-1.83,-5.15,-5.55,0,*67
1507280792.39,1801,12.81,72748.8,-1.85,-5.31,-5.69,0,*69
1507280793.6,1802,12.88,72750.8,-1.85,-5.19,-5.47,0,*6C
1507280794.82,1803,12.88,72750.0,-1.85,-5.07,-5.43,0,*66
1507280796.03,1804,12.81,72746.8,-1.85,-4.65,-4.93,0,*68
1507280797.24,1805,12.88,72746.0,-1.85,-4.53,-4.89,0,*67
1507280798.47,1806,12.88,72746.3,-1.85,-4.77,-5.19,0,*6A
1507280799.71,1807,12.81,72746.5,-1.85,-4.89,-5.31,0,*60
1507280800.96,1808,12.88,72750.8,-1.85,-4.89,-5.23,0,*6C
1507280802.2,1809,12.81,72746.0,-1.83,-4.41,-4.77,0,*6F
1507280803.41,1810,12.88,72746.3,-1.85,-4.45,-4.81,0,*6C
1507280804.65,1811,12.81,72742.8,-1.83,-4.29,-4.77,0,*68
1507280805.89,1812,12.88,72746.5,-1.85,-4.69,-5.03,0,*6B
1507280807.13,1813,12.81,72744.0,-1.85,-4.89,-5.19,0,*6F
1507280808.37,1814,12.88,72750.8,-1.83,-4.53,-4.89,0,*61
1507280809.63,1815,12.88,72750.3,-1.83,-4.77,-5.15,0,*62
1507280810.86,1816,12.81,72744.8,-1.85,-4.69,-4.93,0,*67
1507280812.08,1817,12.88,72748.3,-1.85,-4.57,-4.89,0,*60
1507280813.33,1818,12.88,72744.5,-1.83,-5.03,-5.51,0,*6D
1507280814.54,1819,12.88,72750.3,-1.85,-5.15,-5.43,0,*6E
1507280815.77,1820,12.88,72750.0,-1.85,-4.69,-4.93,0,*62
1507280816.98,1821,12.88,72750.8,-1.87,-4.17,-4.41,0,*67
1507280818.2,1822,12.88,72748.8,-1.87,-4.17,-4.53,0,*67
1507280819.39,1823,12.81,72746.8,-1.85,-4.29,-4.53,0,*69
1507280820.59,1824,12.88,72748.5,-1.85,-4.33,-4.57,0,*61
1507280821.8,1825,12.88,72748.8,-1.85,-4.29,-4.77,0,*69
1507280823.01,1826,12.81,72754.3,-1.85,-4.41,-4.81,0,*6D
1507280824.28,1827,12.88,72754.5,-1.83,-4.73,-5.19,0,*6B
1507280825.5,1828,12.81,72750.5,-1.85,-5.03,-5.47,0,*6F
1507280826.73,1829,12.81,72744.5,-1.85,-4.69,-5.07,0,*67
1507280827.96,1830,12.81,72748.0,-1.87,-4.81,-5.35,0,*6A
1507280829.15,1831,12.88,72752.5,-1.85,-6.39,-6.89,0,*6C
1507280830.39,1832,12.88,72756.0,-1.87,-5.47,-5.81,0,*6C
1507280831.58,1833,12.88,72748.0,-1.89,-5.51,-6.05,0,*6B
1507280832.83,1834,12.81,72738.5,-1.89,-5.07,-5.27,0,*6C
1507280834.07,1835,12.88,72740.5,-1.89,-5.19,-5.61,0,*60
1507280835.32,1836,12.88,72754.0,-1.89,-5.23,-5.61,0,*6A
1507280836.55,1837,12.81,72756.8,-1.89,-4.81,-5.11,0,*65
1507280837.81,1838,12.81,72758.8,-1.87,-4.77,-5.03,0,*6E
1507280839.03,1839,12.81,72762.0,-1.89,-4.89,-5.35,0,*65
1507280840.25,1840,12.88,72754.8,-1.89,-5.47,-5.85,0,*63
1507280841.47,1841,12.88,72754.3,-1.89,-5.51,-5.89,0,*69
1507280842.67,1842,12.81,72740.5,-1.89,-4.93,-5.39,0,*6E
1507280843.88,1843,12.88,72750.8,-1.89,-5.11,-5.47,0,*6D
1507280845.1,1844,12.88,72750.8,-1.89,-6.31,-6.93,0,*61
1507280846.34,1845,12.88,72758.3,-1.91,-6.19,-6.55,0,*69
1507280847.54,1846,12.81,72752.8,-1.93,-6.59,-7.23,0,*6C
1507280848.75,1847,12.88,72760.8,-1.93,-6.85,-7.39,0,*67
1507280849.94,1848,12.81,72756.3,-1.93,-6.73,-7.11,0,*6B
1507280851.15,1849,12.88,72762.5,-1.97,-6.89,-7.31,0,*69
1507280852.4,1850,12.88,72758.8,-1.99,-6.93,-7.23,0,*67
1507280853.62,1851,12.88,72760.8,-2.01,-7.35,-7.83,0,*63
1507280854.83,1852,12.81,72754.5,-2.01,-7.23,-7.69,0,*63
1507280856.08,1853,12.81,72754.8,-2.07,-7.11,-7.39,0,*60
1507280857.3,1854,12.88,72756.3,-2.07,-6.73,-7.11,0,*68
1507280858.55,1855,12.81,72756.8,-2.07,-6.59,-6.93,0,*6A
1507280859.73,1856,12.81,72754.8,-2.09,-6.59,-6.85,0,*60
1507280860.98,1857,12.88,72754.3,-2.09,-6.97,-7.39,0,*65
1507280862.21,1858,12.88,72754.3,-2.11,-6.77,-7.05,0,*62
1507280863.45,1859,12.88,72756.0,-2.13,-6.81,-7.05,0,*68
1507280864.68,1860,12.88,72754.3,-2.13,-6.69,-7.05,0,*64
1507280865.87,1861,12.88,72756.3,-2.15,-6.81,-7.15,0,*64
1507280867.1,1862,12.81,72754.3,-2.15,-7.11,-7.39,0,*61
1507280868.29,1863,12.88,72754.0,-2.15,-7.53,-7.87,0,*63
1507280869.51,1864,12.88,72756.5,-2.19,-7.15,-7.43,0,*62
1507280870.73,1865,12.88,72754.5,-2.19,-7.11,-7.39,0,*6A
1507280871.95,1866,12.88,72758.5,-2.23,-7.23,-7.57,0,*69
1507280873.17,1867,12.88,72752.3,-2.23,-7.31,-7.49,0,*64
1507280874.39,1868,12.88,72758.0,-2.23,-7.61,-7.87,0,*6C
1507280875.63,1869,12.81,72750.3,-2.23,-7.35,-7.69,0,*6C
1507280876.87,1870,12.81,72746.5,-2.29,-7.39,-7.87,0,*62
1507280878.14,1871,12.88,72746.0,-2.29,-7.39,-7.73,0,*68
1507280879.39,1872,12.88,72750.3,-2.31,-6.97,-7.27,0,*66
1507280880.64,1873,12.81,72744.3,-2.33,-7.15,-7.57,0,*69
1507280881.89,1874,12.81,72746.3,-2.33,-6.97,-7.15,0,*63
1507280883.13,1875,12.88,72744.8,-2.33,-7.23,-7.69,0,*67
1507280884.36,1876,12.81,72740.0,-2.35,-6.97,-7.11,0,*63
1507280885.58,1877,12.81,72742.3,-2.35,-6.35,-6.63,0,*6E
1507280886.83,1878,12.88,72746.0,-2.37,-6.55,-6.93,0,*6A
1507280888.03,1879,12.88,72744.5,-2.35,-6.73,-7.11,0,*66
1507280889.23,1880,12.81,72740.8,-2.35,-6.09,-6.35,0,*6A
1507280890.47,1881,12.81,72744.8,-2.37,-5.77,-6.01,0,*64
1507280891.75,1882,12.81,72744.8,-2.33,-5.85,-6.19,0,*67
1507280893.0,1883,12.88,72742.8,-2.31,-5.89,-6.27,0,*65
1507280894.22,1884,12.81,72738.3,-2.33,-6.09,-6.31,0,*6C
1507280895.45,1885,12.88,72746.3,-2.33,-6.09,-6.31,0,*6D
1507280896.67,1886,12.81,72742.0,-2.31,-5.69,-6.05,0,*6E
1507280897.87,1887,12.81,72744.5,-2.31,-6.13,-6.55,0,*64
1507280899.09,1888,12.81,72742.8,-2.33,-6.05,-6.35,0,*68
1507280900.34,1889,12.88,72748.8,-2.31,-5.77,-6.19,0,*63
1507280901.59,1890,12.81,72746.0,-2.31,-5.61,-5.93,0,*6D
1507280902.78,1891,12.88,72758.5,-2.31,-5.51,-6.05,0,*63
1507280904.0,1892,12.81,72752.3,-2.27,-5.77,-6.43,0,*61
1507280905.25,1893,12.88,72758.8,-2.29,-5.77,-6.81,0,*60
1507280906.47,1894,12.88,72758.8,-2.29,-7.53,-8.33,0,*64
1507280907.7,1895,12.88,72758.8,-2.29,-7.91,-8.71,0,*6D
1507280908.95,1896,12.88,72760.8,-2.33,-8.63,-9.45,0,*61
1507280910.18,1897,12.81,72758.5,-2.31,-8.85,-9.11,0,*6B
1507280911.4,1898,12.88,72756.5,-2.33,-8.17,-8.17,0,*6A
1507280912.62,1899,12.81,72750.8,-2.35,-8.45,-8.51,0,*68
1507280913.81,1900,12.81,72750.5,-2.35,-8.25,-8.33,0,*6B
1507280915.03,1901,12.81,72742.3,-2.37,-7.19,-7.19,0,*6F